#timestamp,LO_Frequency,Hit,StdDev 
1459350015.2,286047006.8,Y
1459350035.9,286047005.7,P
1459350055.7,286047007.1,P
1459350075.5,286047006.7,P
1459350095.4,286047008.7,Y
1459350115.2,286047003.2,P
1459350135.0,286047005.7,P
1459350136.0,286047005.7,P
1459350155.8,286047004.7,Y
1459350175.6,286047001.1,P
1459350195.5,286046998.5,N
1459350215.3,286046999.6,N
1459350235.1,286046998.2,N
1459350255.8,286047004.4,N
1459350275.7,286047002.3,N
1459350295.5,286047002.8,N
1459350315.3,286047001.7,N
1459350335.2,286047002.7,N
1459350355.9,286047000.0,N
1459350375.7,286046999.8,N
1459350395.6,286047002.7,N
1459350415.4,286047000.4,N
1459350435.2,286046999.7,N
1459350455.1,286046999.5,N
1459350456.0,286046999.5,N
1459350475.8,286046999.1,N
1459350495.6,286046999.3,N
1459350515.5,286046998.5,N
1459350535.3,286046998.1,N
1459350555.1,286047000.9,N
1459350575.9,286046998.5,N
1459350595.7,286047001.0,N
1459350615.5,286046999.9,N
1459350635.3,286047000.2,N
1459350655.2,286046999.4,N
1459350675.0,286047000.1,N
1459350675.9,286047000.1,N
1459350695.7,286046999.4,N
1459350715.6,286046999.2,N
1459350735.4,286046998.0,N
1459350755.3,286046994.2,Y
1459350775.1,286046992.3,P
1459350776.0,286046992.3,N
1459350795.8,286046992.8,N
1459350815.6,286046990.1,N
1459350835.5,286046990.8,N
1459350855.3,286046991.0,N
1459350875.1,286046991.6,N
1459350895.9,286046987.1,Y
1459350915.7,286046995.7,P
1459350935.5,286046997.6,N
1459350955.4,286046997.5,N
1459350975.2,286046996.0,N
1459350995.0,286046993.3,Y
1459350996.0,286046993.3,P
1459351015.8,286046998.6,N
1459351035.6,286046998.1,N
1459351055.4,286047002.3,N
1459351075.3,286046998.5,N
1459351095.1,286046998.2,N
1459351115.8,286047002.6,N
1459351135.7,286046998.6,N
1459351155.5,286046999.7,N
1459351175.3,286047001.3,N
1459351195.2,286047004.4,N
1459351215.9,286047005.1,N
1459351235.7,286047005.4,N
1459351255.6,286047009.4,N
1459351275.4,286047008.0,N
1459351295.2,286047012.1,N
1459351315.0,286047009.8,N
1459351315.9,286047009.8,N
1459351335.8,286047012.1,N
1459351355.6,286047011.0,N
1459351375.4,286047012.7,N
1459351395.3,286047015.1,N
1459351415.1,286047016.6,N
1459351435.8,286047017.0,N
1459351455.7,286047016.9,N
1459351475.5,286047015.3,N
1459351495.3,286047012.7,N
1459351515.2,286047013.7,N
1459351535.9,286047013.6,N
1459351555.7,286047011.3,N
1459351575.6,286047013.4,N
1459351595.4,286047013.3,N
1459351615.2,286047011.6,N
1459351635.0,286047011.3,N
1459351636.0,286047011.3,N
1459351655.8,286047012.3,N
1459351675.6,286047008.0,N
1459351695.4,286047008.0,N
1459351715.3,286047010.4,N
1459351735.1,286047009.4,N
1459351755.8,286047009.3,N
1459351775.7,286047008.1,N
1459351795.5,286047007.2,N
1459351815.3,286047004.6,N
1459351835.2,286047007.1,N
1459351855.9,286047004.6,N
1459351875.7,286047004.9,N
1459351895.6,286047007.2,N
1459351915.4,286047007.4,N
1459351935.2,286047006.9,N
1459351955.1,286047007.5,N
1459351956.0,286047007.5,N
1459351975.8,286047005.3,N
1459351995.6,286047006.4,N
1459352015.5,286047008.5,N
1459352035.3,286047008.5,N
1459352055.1,286047008.4,Y
1459352075.9,286046995.4,P
1459352095.7,286046995.6,N
1459352115.5,286046996.9,N
1459352135.3,286046996.8,N
1459352155.2,286046999.6,N
1459352175.0,286046999.3,N
1459352175.9,286046999.3,N
1459352195.7,286046997.9,N
1459352215.6,286046998.9,N
1459352235.4,286047001.2,N
1459352255.2,286046997.2,N
1459352275.1,286046997.8,N
1459352276.0,286046997.8,N
1459352295.8,286046996.9,N
1459352315.6,286046996.8,N
1459352335.5,286046998.2,N
1459352355.3,286046999.8,N
1459352375.1,286047001.7,N
1459352395.9,286047000.6,N
1459352415.7,286046998.8,N
1459352435.5,286046999.6,N
1459352455.4,286047000.9,N
1459352475.2,286046998.8,N
1459352495.0,286046998.4,N
1459352495.9,286046998.4,N
1459352515.7,286046996.1,N
1459352535.6,286046995.1,N
1459352555.4,286046997.9,N
1459352575.2,286046993.3,N
1459352595.1,286046996.0,N
1459352596.0,286046996.0,N
1459352615.8,286046995.1,N
1459352635.6,286046995.8,N
1459352655.5,286046995.5,N
1459352675.3,286046999.3,N
1459352695.1,286046999.0,N
1459352715.9,286046994.9,N
1459352735.7,286046993.9,Y
1459352755.5,286046999.3,P
1459352775.4,286046999.5,N
1459352795.2,286046999.6,N
1459352815.0,286046995.2,Y
1459352815.9,286046995.2,P
1459352835.8,286046995.9,N
1459352855.6,286046995.3,N
1459352875.4,286046998.0,N
1459352895.3,286046994.4,Y
1459352915.1,286046998.0,P
1459352935.8,286046997.5,P
1459352955.7,286046996.8,P
1459352975.5,286046996.6,Y
1459352995.3,286046998.1,P
1459353015.2,286046997.7,P
1459353035.9,286046999.3,N
1459353055.7,286046999.2,N
1459353075.6,286046995.6,Y
1459353095.4,286046996.6,P
1459353115.2,286046996.7,P
1459353135.1,286046998.8,N
1459353136.0,286046998.8,N
1459353155.8,286046996.1,Y
1459353175.6,286046997.2,P
1459353195.5,286046996.2,P
1459353215.3,286046995.7,P
1459353235.1,286046995.5,Y
1459353255.9,286046998.5,P
1459353275.7,286047001.1,N
1459353295.5,286046997.0,N
1459353315.4,286046998.6,N
1459353335.2,286046997.1,N
1459353355.0,286046993.9,Y
1459353355.9,286046993.9,P
1459353375.8,286046994.3,N
1459353395.6,286046992.7,P
1459353415.4,286046989.3,Y
1459353435.3,286046992.5,P
1459353455.1,286046990.4,P
1459353475.8,286046993.5,P
1459353495.7,286046994.8,Y
1459353515.5,286046999.8,P
1459353535.3,286046999.0,N
1459353555.2,286047000.1,N
1459353575.9,286047002.8,N
1459353595.7,286046999.8,N
